User: anonymous   Login
Location: Albany
(35.0000°S, 118.0000°E)
Time: 05:28:39
(UTC-05:00)
Language:

Atlas Centaur 2 - Orbit

View from above orbital plane
View from above orbital plane
View from above satellite
View from above satellite

Ground track
Ground track

The orbit data is extracted from the following two-line orbital elements,

1 00694U 63047A   17022.05632643  .00000338  00000-0  28612-4 0  9997
2 00694  30.3574 248.7455 0588329 203.8501 153.3755 14.01992027662190
Epoch (UTC): 22 January 2017 01:21:06
Eccentricity: 0.0588329
inclination: 30.3574°
perigee height: 459 km
apogee height: 1314 km
right ascension of ascending node: 248.7455°
argument of perigee: 203.8501°
revolutions per day: 14.01992027
mean anomaly at epoch: 153.3755°
orbit number at epoch: 66219

The dashed part of the orbit path shows where the satellite is in the earth's shadow,  

DLR